Location: Waco, TX
(31.5480°N, 97.1670°W)
Time: 07:04:37
(UTC-06:00)

ISS - Pass Details

Date: 12 November 2017
Orbit: 402 x 407 km, 51.6° (Epoch: 23 November)

Event Time Altitude Azimuth Distance (km) Brightness Sun altitude
Rises 08:12:06 0° 315° (NW) 2,312 -0.6 14.1°
Reaches altitude 10° 08:14:11 10° 316° (NW) 1,451 -1.6 14.4°
Maximum altitude 08:17:26 85° 42° (NE) 406 -3.5 15.0°
Drops below altitude 10° 08:20:40 10° 134° (SE) 1,445 1.2 15.6°
Sets 08:22:44 0° 135° (SE) 2,301 1.7 16.0°
